This is the latest recevied weather packets stored in our database for station/object K3HM. If no packets are shown the sender has not sent any weather packets the latest 10 day(s).
| Time | Temp. | Humidity | Pressure | Rain* | Wind** | Luminosity | Snow |
|---|---|---|---|---|---|---|---|
| 1777736118 | 5.56° C | 71% | 1015 hPa | 0 mm | - | 140 W/m² | - |
| 1777735815 | 6.11° C | 70% | 1014.8 hPa | 0 mm | - | 117 W/m² | - |
| 1777735513 | 5.56° C | 72% | 1014.7 hPa | 0 mm | - | 960 W/m² | - |
| 1777735211 | 5° C | 72% | 1014.7 hPa | 0 mm | - | 170 W/m² | - |
| 1777734907 | 5° C | 73% | 1014.8 hPa | 0 mm | - | 427 W/m² | - |
| 1777734604 | 5° C | 74% | 1014.9 hPa | 0 mm | - | 208 W/m² | - |
| 1777734302 | 5° C | 72% | 1014.8 hPa | 0 mm | - | 127 W/m² | - |
| 1777733997 | 6.11° C | 72% | 1014.7 hPa | 0 mm | - | 166 W/m² | - |
| 1777733694 | 6.11° C | 72% | 1014.8 hPa | 0 mm | - | 312 W/m² | - |
| 1777733391 | 5.56° C | 72% | 1014.7 hPa | 0 mm | - | 715 W/m² | - |
| 1777733087 | 4.44° C | 76% | 1014.8 hPa | 0 mm | - | 594 W/m² | - |
| 1777732783 | 5° C | 75% | 1015 hPa | 0 mm | - | 131 W/m² | - |
| 1777732481 | 5° C | 76% | 1014.9 hPa | 0 mm | - | 124 W/m² | - |
| 1777732178 | 5.56° C | 72% | 1014.6 hPa | 0 mm | - | 223 W/m² | - |
| 1777731875 | 5.56° C | 75% | 1014.6 hPa | 0 mm | - | 715 W/m² | - |
| 1777731572 | 5° C | 76% | 1014.6 hPa | 0 mm | - | 409 W/m² | - |
| 1777731270 | 4.44° C | 79% | 1014.6 hPa | 0 mm | - | 141 W/m² | - |
| 1777730967 | 5° C | 77% | 1014.6 hPa | 0 mm | - | 208 W/m² | - |
| 1777730666 | 4.44° C | 78% | 1014.6 hPa | 0 mm | - | 158 W/m² | - |
| 1777730361 | 3.89° C | 79% | 1014.8 hPa | 0 mm | - | 225 W/m² | - |
| 1777730057 | 3.89° C | 79% | 1014.7 hPa | 0 mm | - | 146 W/m² | - |
| 1777729754 | 4.44° C | 79% | 1014.6 hPa | 0 mm | - | 190 W/m² | - |
| 1777729451 | 5° C | 79% | 1014.5 hPa | 0 mm | - | 277 W/m² | - |
| 1777729147 | 4.44° C | 77% | 1014.4 hPa | 0 mm | - | 450 W/m² | - |
| 1777728844 | 4.44° C | 79% | 1014.5 hPa | 0 mm | - | 120 W/m² | - |
* Rain latest hour (hover to see other rain measurements)
** Current wind speed in m/s (hover to see current wind gust speed)